2020-081H (46912 NORAD) Tracking and Keplerian Element Data

This shows tracking and keplerian element data for the satellite.

Feedback or suggestion? Click here.




ElementValue
Catalog46912
Name2020-081H
Epoch Orbit231
Epoch Day327.82647172
Epoch Year2020
RAAN8.5218
Inclination36.9044
Eccentricity0.0008171
Argument of Perigee105.0386
Mean Anonmoly255.1262
Mean Motion14.99279898
Decay Rate2.16E-06
L11 46912U 20081H 20327.82647172 .00000216 00000-0 23626-4 0 9996
L22 46912 36.9044 8.5218 0008171 105.0386 255.1262 14.99279898 2319

Live tracking and technical data element details for 2020-081H (NORAD 46912). 2020-081H can be tracked NOW for your location showing map with azimuth and elevation plus other details from your city location.

Track the satellite on the map from your city or location and see movement details for azimuth, elevation, latitude, longitude, range, height, and movement on the map or in text.







IsCatalogInMostPopularTable: catalog: 46912, numindb: 5
Update: records affected: 1



GetName: 46912 2020-081H

Hit Count: updated at: Tue, 24 Nov 2020 11:34:09 GMT